Probability
15 18 23 17 6 1 0 0 0 0 0 0 0 0 0 0 0 0 0 0 0 0 0 0 0 0 0 0 0 0 0 0 0 0 0 0 0 0 0 0 0 0 0 0 0 0 0 0 0
9 12 15 10 3 0 0 0 0 0 0 0 0 0 0 0 0 0 0 0 0 0 0 0 0 0 0 0 0 0 0 0 0 0 0 0 0 0 0 0 0 0 0 0 0 0 0 0 0
4 5 5 3 0 0 0 0 0 0 0 0 0 0 0 0 0 0 0 0 0 0 0 0 0 0 0 0 0 0 0 0 0 0 0 0 0 0 0 0 0 0 0 0 0 0 0 0 0
1 1 1 0 0 0 0 0 0 0 0 0 0 0 0 0 0 0 0 0 0 0 0 0 0 0 0 0 0 0 0 0 0 0 0 0 0 0 0 0 0 0 0 0 0 0 0 0 0
0 0 0 0 0 0 0 0 0 0 0 0 0 0 0 0 0 0 0 0 0 0 1 1 2 1 0 0 0 0 0 0 0 0 0 0 0 0 0 0 0 0 0 0 0 0 0 0 0
0 0 0 0 0 0 0 0 0 0 0 0 0 0 0 0 0 0 0 0 0 0 1 1 3 3 2 1 1 0 0 0 0 0 0 0 0 0 0 0 0 0 0 0 0 0 0 0 0
0 0 0 0 0 0 0 0 0 0 0 0 0 0 0 0 1 1 0 0 0 0 1 2 4 4 3 2 2 1 0 1 1 1 0 0 0 0 0 0 0 0 0 0 0 0 0 0 0
0 0 0 0 0 0 1 0 0 1 2 3 2 1 1 0 1 1 1 0 1 1 1 2 4 3 2 2 3 2 2 2 2 2 1 1 0 0 0 0 0 0 0 0 0 0 0 0 0
0 0 0 0 0 1 2 1 0 1 4 6 6 4 2 2 2 2 1 0 2 3 2 2 2 1 1 3 6 6 6 5 4 3 3 2 0 0 0 1 2 1 0 0 0 0 0 0 0
0 0 1 1 1 1 2 2 1 1 3 6 6 4 3 4 4 4 3 3 4 5 4 3 2 1 2 6 10 10 11 12 9 5 5 3 1 0 0 2 4 4 1 0 0 0 0 0 0
0 1 2 4 4 3 3 3 2 2 2 4 4 3 3 4 4 4 4 4 4 5 5 4 3 3 3 7 11 13 16 18 14 9 10 8 4 2 2 4 5 4 1 0 0 0 0 0 0
1 2 5 6 6 5 5 3 2 2 3 4 4 3 3 3 4 3 3 3 3 3 4 4 4 5 5 6 10 13 16 16 14 12 14 15 10 4 4 6 6 4 1 0 0 0 0 0 0
2 3 5 5 5 6 5 2 1 3 4 5 5 5 4 3 4 3 3 2 2 2 2 2 3 4 5 6 9 11 13 14 15 15 14 16 15 8 4 4 4 3 2 1 0 0 0 0 0
1 2 3 3 4 5 4 2 1 3 5 5 5 4 3 3 2 2 2 2 2 1 0 1 2 2 4 6 8 11 15 19 23 23 17 15 16 12 6 2 1 1 1 1 0 0 0 0 0
0 1 2 2 2 3 2 2 2 3 4 4 4 3 2 1 1 1 1 1 1 0 0 0 1 1 2 4 7 12 18 23 30 33 26 19 17 15 10 5 2 1 1 1 0 0 0 0 0
0 1 1 1 1 1 2 3 3 3 3 3 3 2 1 0 0 0 0 0 0 0 0 0 0 0 1 2 5 10 15 22 31 38 33 25 21 21 19 15 7 3 2 1 0 0 0 0 0
0 0 0 0 0 1 2 3 3 3 3 3 2 1 0 0 0 0 0 0 0 0 0 0 0 0 1 2 4 7 11 18 27 35 34 29 28 29 29 26 17 9 6 3 0 1 1 1 0
0 0 0 0 0 1 2 3 3 3 2 1 1 0 0 0 0 0 0 0 0 0 0 0 0 0 1 2 4 6 9 14 21 29 32 31 32 33 34 34 27 18 13 6 2 3 3 2 1
0 0 0 0 0 0 1 2 2 1 1 0 0 0 0 0 0 0 0 0 0 0 0 0 0 0 0 2 4 6 8 11 15 21 27 29 30 32 37 40 34 26 19 10 5 5 4 2 1
0 0 0 0 0 0 0 1 2 1 0 0 0 0 0 0 0 0 0 0 0 0 0 0 0 0 0 1 2 3 4 6 9 14 21 25 26 29 36 42 39 32 24 13 7 5 2 1 0
0 0 0 0 0 0 0 1 1 1 0 0 0 0 0 0 0 0 0 0 0 0 0 0 0 0 0 1 1 2 3 4 7 11 16 21 23 26 32 38 39 35 29 19 10 5 2 1 0
0 0 0 0 0 0 0 0 0 0 0 0 0 0 0 0 0 0 0 0 0 0 0 0 0 0 0 0 1 2 3 5 7 10 14 17 19 23 28 33 34 33 30 23 15 8 5 4 2
0 0 0 0 0 0 0 0 0 0 0 0 0 0 0 0 0 0 0 0 0 0 0 0 0 0 0 0 1 2 3 5 7 9 11 13 15 19 27 31 31 30 27 21 16 11 9 7 5
0 0 0 0 0 0 0 0 0 0 0 0 0 0 0 0 0 0 0 0 0 0 0 0 0 0 0 0 0 1 3 4 6 7 9 11 14 17 23 29 30 28 24 19 15 12 10 7 6
0 0 0 0 0 0 0 0 0 0 0 0 0 0 0 0 0 0 0 0 0 0 0 0 0 0 0 0 0 1 2 3 5 6 7 9 13 16 18 21 25 26 23 19 15 12 9 6 5
0 0 0 0 0 0 0 0 0 0 0 0 0 0 0 0 0 0 0 0 0 0 0 0 0 0 0 0 0 1 1 1 2 3 4 6 8 12 13 14 19 22 21 19 16 13 10 6 4
0 0 0 0 0 0 0 0 0 0 0 0 0 0 0 0 0 0 0 0 0 0 0 0 0 0 0 0 0 0 0 0 0 1 2 3 5 7 8 10 13 17 18 17 16 14 11 6 3
0 0 0 0 0 0 0 0 0 0 0 0 0 0 0 0 0 0 0 0 0 0 0 0 0 0 0 0 0 0 0 0 0 0 0 2 3 4 4 6 9 12 15 16 15 13 10 6 3
0 0 0 0 0 0 0 0 0 0 0 0 0 0 0 0 0 0 0 0 0 0 0 0 0 0 0 0 0 0 0 0 0 0 0 1 1 1 1 2 4 6 10 12 12 9 6 4 3
0 0 0 0 0 0 0 0 0 0 0 0 0 0 0 0 0 0 0 0 0 0 0 0 0 0 0 0 0 0 0 0 0 0 0 0 0 0 0 1 1 3 6 9 8 4 2 2 2
Wind_Speed
8 9 6 3 3 1 11 10 11 10 11 10 10 11 14 14 10 8 4 8 16 16 14 12 12 11 10 9 8 8 7 7 6 6 5 5 4 4 3 3 3 3 3 3 3 3 3 4 4
9 7 4 3 1 6 9 8 10 11 10 9 11 14 16 15 13 9 5 10 16 16 13 12 12 11 10 9 8 7 7 6 6 6 5 4 4 3 3 3 2 3 3 3 3 3 3 3 3
11 7 4 2 5 8 8 7 9 12 12 11 13 15 12 10 12 8 8 11 14 13 12 13 12 10 9 8 7 7 6 6 6 5 5 4 4 3 3 2 2 2 2 2 2 2 2 2 2
6 4 3 1 10 10 8 8 10 12 14 15 13 12 13 11 11 10 9 11 13 13 13 12 11 10 9 8 7 6 6 5 5 5 4 4 4 3 2 2 2 1 2 2 2 2 1 2 2
5 2 2 5 9 10 10 11 12 12 15 16 17 16 13 13 12 10 8 10 11 12 13 12 11 10 9 8 7 6 6 6 6 5 5 5 4 3 3 2 2 2 1 2 2 1 1 1 1
3 1 2 4 8 8 9 11 13 13 14 15 13 15 12 12 10 8 7 6 8 11 12 12 12 11 10 9 8 7 7 7 7 6 6 5 5 4 4 3 3 2 2 1 1 1 1 1 1
4 1 2 5 7 7 10 12 13 13 16 14 11 12 10 10 7 6 6 7 6 7 9 10 11 11 11 11 10 9 9 8 8 8 7 7 6 6 6 5 5 4 3 2 2 2 2 2 2
3 3 3 4 6 7 9 12 13 15 14 14 12 10 7 7 6 7 7 7 6 4 4 5 7 8 9 9 12 12 11 10 9 9 9 9 8 8 8 8 7 6 5 4 4 3 3 4 4
4 2 3 2 4 6 8 10 11 13 14 16 15 12 8 8 8 9 8 8 7 7 5 4 1 2 3 6 10 11 11 11 10 9 11 9 6 8 8 10 10 9 8 7 6 6 6 6 7
0 3 3 6 9 9 11 12 7 10 14 13 13 13 12 11 11 10 9 9 8 8 7 6 5 3 1 2 4 6 7 7 7 6 8 7 7 5 7 10 13 12 10 8 8 8 8 7 5
5 5 5 9 9 10 10 12 14 9 10 10 10 11 11 11 10 10 9 8 7 7 7 7 6 4 3 2 1 1 2 4 6 7 7 6 5 4 4 4 7 7 9 6 7 7 6 7 6
7 9 9 9 10 10 10 9 11 13 8 7 7 8 9 10 9 8 7 6 6 6 6 7 7 5 4 3 2 2 1 2 2 4 6 5 3 3 3 4 6 6 5 6 6 6 9 9 9
8 8 11 12 13 15 15 13 10 9 6 6 6 8 9 9 8 6 6 6 6 6 6 6 6 5 4 3 2 3 2 2 3 2 3 4 4 3 3 3 4 5 5 6 4 6 6 6 4
8 10 9 9 9 10 13 10 8 7 5 6 7 8 8 8 8 7 8 7 6 6 6 6 6 6 5 4 3 2 3 3 3 3 4 4 3 4 3 3 3 3 3 4 5 5 4 2 2
10 9 8 6 8 10 7 10 8 5 3 6 6 7 6 6 7 9 9 9 8 7 6 6 6 5 5 5 5 4 3 3 3 3 4 4 3 4 4 3 3 2 2 3 3 4 3 2 2
10 9 6 3 2 5 3 6 7 4 4 5 6 6 5 6 9 10 10 10 9 8 7 6 7 6 5 5 4 4 4 3 3 3 3 4 4 4 3 3 2 2 2 1 2 1 1 1 1
5 4 4 4 1 1 4 7 6 4 5 6 7 7 7 9 11 10 10 10 9 9 8 8 7 6 6 6 5 4 4 3 3 3 4 4 5 4 3 3 3 3 1 1 1 1 1 1 1
3 5 2 5 4 4 6 6 5 5 6 7 7 8 9 10 11 11 11 10 10 10 10 8 7 7 6 5 4 4 4 3 3 3 4 5 4 5 4 4 5 4 2 2 1 1 1 1 0
9 8 6 6 4 2 3 5 5 5 5 7 8 9 10 11 12 11 11 11 11 11 11 9 8 7 6 4 4 4 4 4 3 3 5 5 5 6 5 4 5 4 4 4 3 2 1 0 0
9 9 6 5 4 1 2 4 8 5 5 6 8 10 11 12 12 12 11 11 11 11 10 10 9 8 7 5 4 4 4 4 4 3 3 4 5 5 6 5 5 5 4 4 4 3 2 1 1
11 7 7 7 1 4 5 5 9 7 5 7 9 9 11 11 12 12 12 11 11 11 11 10 10 10 8 7 5 5 4 4 4 4 3 3 5 5 5 5 5 5 5 5 5 5 5 3 2
8 7 7 8 8 6 7 3 9 6 6 8 9 9 10 10 10 10 11 12 12 11 11 11 10 10 10 8 6 7 5 4 5 4 3 3 4 4 4 5 5 6 5 5 6 6 5 5 3
7 7 8 9 9 9 7 4 7 6 7 8 9 9 9 10 11 10 10 10 11 11 10 10 10 10 10 9 7 6 5 5 4 4 3 3 3 3 4 5 5 6 5 6 6 6 6 5 4
6 9 10 9 7 8 4 2 7 5 7 8 9 9 9 9 9 9 10 9 10 10 9 9 9 9 9 9 8 7 7 6 5 5 3 3 2 2 2 3 4 5 5 5 6 6 7 6 6
6 8 6 5 5 1 3 2 7 6 6 7 7 8 8 8 8 9 10 10 9 10 10 9 10 10 10 9 9 8 8 7 5 5 4 3 2 2 2 3 3 3 4 5 5 6 7 7 7
8 6 6 7 5 1 4 4 7 6 5 4 5 6 7 8 7 8 8 8 8 9 9 9 10 9 9 9 9 8 8 5 4 5 4 3 2 2 2 2 2 3 4 5 5 5 6 6 6
7 6 6 6 10 6 5 8 7 5 4 5 6 7 7 7 7 7 7 7 8 8 8 8 9 9 9 9 8 8 9 7 6 6 5 3 3 3 3 2 0 2 4 5 5 4 4 5 5
3 5 6 5 6 5 2 5 5 4 5 5 6 7 7 7 7 6 6 6 6 6 6 7 7 8 8 8 8 7 7 7 7 7 7 6 5 5 4 3 2 2 1 2 3 3 3 4 4
5 3 4 5 2 3 3 4 5 5 4 4 5 6 5 6 5 4 4 5 5 6 6 6 7 7 8 8 8 7 7 7 8 7 7 6 5 5 4 4 4 3 3 2 2 2 2 3 3
2 5 6 5 6 2 2 4 5 4 2 3 4 5 5 5 4 4 5 5 5 6 6 6 6 7 7 7 8 7 7 8 8 8 8 8 8 7 6 5 5 5 5 4 4 3 2 2 3
Wind_Direction
226 225 226 251 258 73 59 52 51 37 38 42 45 62 69 57 55 83 160 133 116 118 126 131 128 126 123 121 119 120 120 121 123 125 127 126 121 118 118 110 86 68 59 57 56 53 56 55 50
248 216 229 246 315 71 61 53 56 46 44 54 56 57 64 62 76 97 111 106 117 123 137 132 133 132 131 129 128 128 129 128 127 128 128 131 129 127 126 116 98 81 65 61 61 55 55 56 50
254 232 243 234 64 66 60 45 53 53 45 58 72 62 49 51 74 96 111 123 119 124 125 125 139 138 138 139 139 140 140 138 138 138 136 138 138 133 132 132 118 96 75 65 66 65 59 57 52
249 237 250 54 77 67 60 55 59 57 51 53 67 68 61 53 78 102 124 118 115 118 119 132 142 144 146 149 152 154 155 154 155 158 160 159 157 154 148 151 145 126 105 87 78 76 70 69 59
239 264 15 72 75 71 56 54 57 53 54 60 79 83 70 62 79 98 106 111 123 127 128 140 147 152 158 162 165 167 170 173 175 175 178 177 175 174 175 175 165 151 135 111 99 100 102 93 63
271 45 53 86 79 72 68 56 58 49 48 48 74 89 76 59 60 76 93 108 121 128 135 140 156 163 170 176 180 182 185 189 190 189 190 190 192 191 190 190 183 173 162 148 140 149 158 163 215
283 268 147 109 88 60 64 61 57 58 43 35 54 87 85 57 45 59 70 68 83 108 130 150 163 173 180 186 189 192 197 200 199 197 199 200 202 204 203 201 194 189 178 177 181 190 201 216 226
291 320 39 68 91 62 56 68 60 54 50 36 39 59 66 51 48 55 58 58 54 67 102 146 166 175 183 189 195 197 200 204 206 206 206 206 208 212 213 208 201 199 194 194 198 208 216 226 229
265 30 41 59 98 70 50 73 73 67 62 55 53 54 50 45 50 47 41 37 33 25 19 33 75 147 182 189 192 195 202 207 208 209 213 212 216 211 207 215 193 195 198 201 206 215 222 229 229
324 66 58 63 82 91 58 44 30 75 49 37 39 40 41 40 43 45 39 28 21 12 5 13 5 353 313 216 178 195 195 195 205 209 202 208 223 219 203 190 184 191 199 204 211 219 228 233 228
49 73 81 76 88 105 90 60 32 66 50 31 27 27 33 39 39 36 34 29 19 9 2 358 352 351 358 331 271 224 203 187 204 211 204 210 223 206 180 166 177 192 202 208 208 214 226 226 222
81 53 61 67 62 70 74 76 61 53 52 40 43 35 36 38 36 31 24 18 8 10 359 350 348 345 347 346 322 289 279 230 221 216 212 200 212 225 203 181 180 187 196 206 193 209 218 225 220
101 96 84 85 86 87 87 84 79 60 55 51 48 44 37 35 29 29 23 18 4 0 349 345 342 340 336 331 307 302 276 257 249 230 239 208 191 209 227 209 188 193 191 191 205 219 228 222 224
119 122 122 115 103 99 97 85 73 55 47 48 42 41 32 26 18 16 16 9 0 353 344 340 339 337 325 311 293 278 274 260 260 248 234 232 199 196 216 225 208 212 204 183 194 220 239 232 223
141 146 140 139 140 147 129 78 63 52 47 45 34 42 27 20 17 19 11 358 354 346 340 338 325 326 323 319 313 301 273 260 249 245 253 250 224 205 209 211 207 212 223 214 208 225 220 209 198
191 183 150 108 172 173 225 86 65 37 35 40 29 28 23 25 20 20 7 356 350 341 335 333 327 328 317 306 295 288 284 276 256 242 245 256 256 221 201 206 211 214 218 233 212 216 226 219 212
217 252 148 139 73 57 73 90 80 47 24 28 24 15 18 18 14 15 7 356 347 338 336 337 336 326 317 305 289 275 270 265 258 244 232 232 238 233 196 203 208 207 185 204 240 181 195 225 241
323 289 233 138 97 83 87 107 100 66 37 24 17 12 18 15 8 11 4 357 350 346 344 339 334 329 323 313 309 302 290 275 257 243 236 232 222 221 207 204 204 196 178 187 213 188 182 202 199
314 306 312 108 107 53 106 131 118 79 47 25 14 11 14 11 5 10 4 1 355 349 344 338 334 332 327 323 317 311 304 297 282 261 245 235 230 219 209 206 201 196 193 186 189 183 169 199 251
300 302 320 105 115 325 226 172 129 103 69 44 21 13 13 8 2 2 359 357 353 349 343 337 339 333 328 322 311 291 290 284 279 271 258 243 238 230 218 205 195 193 193 190 189 174 162 190 191
317 340 345 335 284 240 254 208 145 129 92 56 35 22 17 6 359 358 355 357 353 350 346 342 340 336 334 334 321 312 303 291 287 283 273 252 237 230 221 204 192 195 191 190 191 184 175 188 198
326 27 334 302 283 256 209 246 139 130 75 45 32 24 16 3 1 2 359 357 352 351 348 344 344 343 342 337 326 319 307 299 291 288 275 271 253 236 226 211 201 195 195 191 193 185 176 169 195
328 326 291 276 270 273 246 245 125 106 42 28 25 20 12 5 3 3 3 360 355 354 352 350 349 349 346 339 332 324 316 303 295 293 290 282 260 237 223 213 203 198 196 196 193 184 179 177 185
289 276 257 244 252 257 235 227 99 59 30 16 17 13 6 5 2 2 6 2 357 356 353 353 353 352 347 344 343 339 329 320 318 314 312 305 286 260 237 217 199 198 192 195 195 188 185 187 188
265 299 287 243 212 186 75 87 85 75 47 22 13 10 5 6 5 5 7 360 357 357 357 354 355 355 352 352 353 348 341 336 333 331 323 317 310 292 244 237 204 198 195 193 192 190 192 187 182
316 307 316 318 327 129 168 94 104 92 75 37 25 20 12 8 10 11 10 358 356 357 358 357 356 356 358 359 357 355 354 350 344 341 337 330 325 305 299 248 206 195 195 193 190 195 195 187 184
317 336 345 300 290 289 120 114 129 123 75 38 28 23 17 9 10 12 10 3 1 358 360 360 359 360 1 360 359 4 1 358 352 350 352 345 344 352 355 359 37 198 196 190 185 190 190 182 184
301 317 304 296 334 328 74 102 96 78 40 23 23 21 17 9 11 11 9 7 2 358 357 5 6 6 1 1 4 7 3 6 5 9 8 5 4 6 14 19 28 49 101 156 165 165 169 168 177
331 301 323 298 288 327 341 71 70 63 46 24 20 23 19 5 9 13 12 10 6 1 4 8 7 10 7 4 4 6 9 15 16 12 8 8 9 11 20 30 38 47 54 69 101 126 148 164 175
332 351 338 330 346 329 304 100 90 94 80 48 24 24 23 10 11 23 21 15 10 8 9 13 12 12 10 6 5 9 17 18 17 13 11 13 16 18 24 37 41 47 49 51 62 75 102 141 149